[[{"header":{"parameterUnit":"m.s-1","parameterCategory":1,"la1":30.2991,"la2":30.254,"lo1":-89.0895,"lo2":-89.0444,"dy":0.0017,"dx":0.0017,"nx":28,"ny":28,"refTime":"2024-02-23T09:00:00:Z","depth":0,"parameterNumber":2,"parameterNumberName":"U-component_of_WINDS"},"data":[0,0,0,0,0,0,0,0,0,0,0,0,0,0,0,0,0,0,0,0,0,0,0,0,0,0,0,0,0,0,0,0,0,0,0,0,0,0,0,0,0,0,0,0,0,0,0,0,0,0,0,0,0,0,0,0,0,0,3.8271,3.8271,0,3.8344,3.8345,3.8346,3.8347,3.8346,3.8345,3.8345,3.842,3.8423,3.8426,0,0,0,0,0,0,0,0,0,0,0,0,0,3.8133,3.8136,3.827,3.8271,3.8272,3.8344,3.8345,3.8346,3.8347,3.8346,3.8345,3.8344,3.8419,3.8422,3.8426,0,0,0,0,0,0,0,0,0,0,0,0,0,3.8198,3.8136,3.827,3.8282,3.8283,3.8344,3.8345,3.8347,3.8348,3.8346,3.8345,3.8344,3.8418,3.8422,3.8426,3.8481,0,0,3.8439,3.8441,0,0,0,0,0,0,0,0,3.8195,3.8203,3.8279,3.8281,3.8283,3.8335,3.8324,3.8391,3.8348,3.8323,3.8345,3.8343,3.8393,3.8399,3.8416,3.8484,3.8487,3.844,3.8442,3.8444,3.8446,0,0,0,0,0,0,0,3.819,3.82,3.83,3.828,3.8283,3.8284,3.8292,3.8337,3.8365,3.8325,3.8326,3.8334,3.8394,3.8412,3.8418,3.8488,3.844,3.8444,3.8446,3.8448,3.861,3.8611,0,0,0,0,0,0,3.8183,3.8197,3.8297,3.8302,3.8235,3.8287,3.8296,3.832,3.8364,3.837,3.8335,3.8334,3.8405,3.8413,3.842,3.849,3.8444,3.8448,3.8451,3.8608,3.861,3.8612,0,0,0,0,0,0,3.818,3.8192,3.8294,3.8249,3.8263,3.8291,3.8318,3.8322,3.834,3.8372,3.8377,3.8349,3.8404,3.8414,3.8467,3.8493,3.845,3.8454,3.8606,3.8609,3.8611,3.8628,0,0,0,0,0,0,3.8176,3.8191,3.8211,3.825,3.8265,3.8339,3.8319,3.8324,3.8348,3.8347,3.8386,3.8391,3.8404,3.846,3.8471,3.8498,3.8458,3.8604,3.8607,3.861,3.8626,3.8631,3.8636,0,0,0,0,0,3.8171,3.8212,3.8212,3.8224,3.8291,3.834,3.8349,3.8363,3.835,3.8371,3.8392,3.839,3.8488,3.8466,3.8478,3.8506,3.8602,3.8606,3.861,3.8623,3.863,3.8636,0,0,0,0,0,0,3.8174,3.8217,3.8218,3.8272,3.8303,3.834,3.8367,3.8369,3.8404,3.8401,3.8417,3.8426,3.8479,3.8498,3.8472,3.8564,3.8544,3.855,3.855,3.8556,3.8561,3.8557,3.8461,0,0,0,0,0,3.8182,3.8218,3.8253,3.8298,3.8313,3.8338,3.836,3.8368,3.8401,3.8413,3.8438,3.847,3.8508,3.8533,3.857,3.8628,3.8639,3.8654,3.8659,3.8663,3.8669,3.8705,3.8714,3.8625,3.8625,3.8625,0,0,3.8196,3.8224,3.8246,3.8299,3.8324,3.8363,3.8348,3.8389,3.8418,3.8419,3.8471,3.8491,3.8528,3.8584,3.861,3.8601,3.8696,3.8668,3.8671,3.8675,3.871,3.8719,3.8726,3.8627,3.8627,3.8627,0,0,3.8244,3.8267,3.8309,3.8335,3.8373,3.8389,3.84,3.8438,3.8451,3.8504,3.8507,3.8542,3.8607,3.8635,3.8657,3.8719,3.8719,3.873,3.8758,3.8793,3.88,3.8806,3.8832,3.884,3.8736,3.8736,3.8736,0,3.8257,3.8315,3.833,3.8372,3.8396,3.8401,3.8444,3.8468,3.8517,3.8534,3.8523,3.8608,3.8632,3.8698,3.8713,3.873,3.8744,3.8726,3.8798,3.8804,3.881,3.8835,3.8844,3.8737,3.8737,3.8737,3.8737,0,3.8332,3.8372,3.8401,3.8449,3.8477,3.8519,3.8542,3.8569,3.8576,3.8594,3.865,3.868,3.8725,3.8741,3.8747,3.8808,3.8802,3.8794,3.8775,3.882,3.8843,3.8852,3.8739,3.8738,3.8738,3.8738,0,0,3.8381,3.844,3.845,3.8474,3.8518,3.855,3.8594,3.8639,3.8663,3.8697,3.8736,3.8793,3.8787,3.8813,3.8822,3.8853,3.8905,3.8842,3.8843,3.8855,3.8978,3.8985,3.8995,3.8905,3.8907,3.8908,3.8976,0,3.8436,3.8514,3.853,3.8598,3.8638,3.8644,3.8683,3.8715,3.8734,3.8771,3.8792,3.8834,3.8821,3.8838,3.8868,3.8892,3.893,3.8887,3.8944,3.8945,3.8936,3.9007,3.9014,3.9076,3.8985,3.8986,3.8987,0,3.8509,3.8546,3.8619,3.8662,3.8679,3.8713,3.8758,3.8793,3.8831,3.8843,3.8873,3.8881,3.8929,3.8907,3.8975,3.8946,3.897,3.8985,3.8988,3.8995,3.897,3.9019,3.9096,3.9106,3.9001,3.9,3.8999,0,3.8542,3.861,3.8664,3.8683,3.8734,3.8759,3.8781,3.8817,3.8845,3.8884,3.8902,3.8946,3.897,3.9005,3.9025,3.9006,3.9093,3.9071,3.9106,3.9106,3.9125,3.9124,3.921,3.9137,3.9137,3.9136,3.9136,0,3.8602,3.8647,3.868,3.8713,3.8765,3.8784,3.8835,3.8857,3.889,3.8929,3.8936,3.8973,3.8996,3.9036,3.9052,3.9108,3.9118,3.9131,3.9135,3.9132,3.9131,3.9149,3.9146,3.9139,3.9138,3.9138,3.9138,0,3.8647,3.8671,3.8731,3.8774,3.8787,3.8823,3.8861,3.8895,3.8915,3.8964,3.8977,3.9009,3.9057,3.9081,3.914,3.9151,3.9215,3.9215,3.9203,3.9205,3.924,3.9237,3.9342,3.9359,3.9272,3.9273,3.9274,0,3.8685,3.872,3.8769,3.8796,3.8819,3.8862,3.8891,3.8912,3.8941,3.8989,3.9018,3.9067,3.9107,3.9184,3.9213,3.926,3.9263,3.9297,3.927,3.9267,3.9267,3.9266,3.9271,3.9302,3.9303,3.9303,3.9304,0,3.8751,3.8762,3.8803,3.8849,3.8884,3.8921,3.8957,3.8979,3.9006,3.904,3.909,3.9122,3.9184,3.9234,3.9283,3.9307,3.9311,3.9312,3.9323,3.9321,3.9314,3.9321,3.9219,3.931,3.9309,3.9309,3.9308,3.9308,3.8796,3.8829,3.8869,3.8916,3.8946,3.8981,3.9016,3.9042,3.9084,3.9137,3.9147,3.9201,3.9242,3.9308,3.9335,3.9378,3.9371,3.9386,3.939,3.9394,3.9398,3.9305,3.9387,3.9387,3.9387,3.9387,3.9386,0,3.8864,3.8892,3.8934,3.8987,3.9024,3.9025,3.9067,3.9098,3.9146,3.9183,3.9224,3.9284,3.9333,3.9367,3.9417,3.9446,3.945,3.9459,3.9458,3.9464,3.94,3.9387,3.9455,3.9455,3.9455,3.9455,3.9455,3.9455,3.8905,3.8962,3.8979,3.9052,3.9079,3.9133,3.9157,3.9191,3.9221,3.9288,3.9329,3.9351,3.9388,3.9442,3.9488,3.9497,3.9516,3.9526,3.9536,3.9475,3.9468,3.9461,3.9449,3.953,3.953,3.9597,3.9597,3.9598]},{"header":{"parameterUnit":"m.s-1","parameterCategory":1,"la1":30.2991,"la2":30.254,"lo1":-89.0895,"lo2":-89.0444,"dy":0.0017,"dx":0.0017,"nx":28,"ny":28,"refTime":"2024-02-23T09:00:00:Z","depth":0,"parameterNumber":3,"parameterNumberName":"V-component_of_WINDS"},"data":[0,0,0,0,0,0,0,0,0,0,0,0,0,0,0,0,0,0,0,0,0,0,0,0,0,0,0,0,0,0,0,0,0,0,0,0,0,0,0,0,0,0,0,0,0,0,0,0,0,0,0,0,0,0,0,0,0,0,-3.5962,-3.596,0,-3.5738,-3.5735,-3.5732,-3.5731,-3.5734,-3.5737,-3.5739,-3.5495,-3.5486,-3.5477,0,0,0,0,0,0,0,0,0,0,0,0,0,-3.6378,-3.6371,-3.5962,-3.5959,-3.5957,-3.5738,-3.5735,-3.5732,-3.573,-3.5734,-3.5737,-3.5741,-3.5498,-3.5487,-3.5476,0,0,0,0,0,0,0,0,0,0,0,0,0,-3.618,-3.6368,-3.5963,-3.593,-3.5925,-3.5739,-3.5735,-3.5731,-3.573,-3.5734,-3.5738,-3.5742,-3.5502,-3.5488,-3.5475,-3.5302,0,0,-3.5433,-3.5427,0,0,0,0,0,0,0,0,-3.6191,-3.6164,-3.5938,-3.5932,-3.5926,-3.5767,-3.5792,-3.5587,-3.5728,-3.5803,-3.5739,-3.5744,-3.5581,-3.5561,-3.5509,-3.5291,-3.528,-3.5431,-3.5423,-3.5417,-3.5413,0,0,0,0,0,0,0,-3.6205,-3.6174,-3.5873,-3.5934,-3.5927,-3.5923,-3.5899,-3.5753,-3.567,-3.5797,-3.5796,-3.5771,-3.5579,-3.5522,-3.5503,-3.5277,-3.5432,-3.542,-3.5411,-3.5406,-3.4906,-3.4901,0,0,0,0,0,0,-3.6227,-3.6186,-3.588,-3.5866,-3.6072,-3.5912,-3.5886,-3.5813,-3.5672,-3.5655,-3.5767,-3.5771,-3.5544,-3.5519,-3.5495,-3.5283,-3.5417,-3.5404,-3.5396,-3.4911,-3.4905,-3.4899,0,0,0,0,0,0,-3.6236,-3.62,-3.5889,-3.6026,-3.5986,-3.59,-3.5819,-3.5806,-3.575,-3.5649,-3.5633,-3.5726,-3.5546,-3.5514,-3.5351,-3.5274,-3.5398,-3.5385,-3.4916,-3.4909,-3.4902,-3.4859,0,0,0,0,0,0,-3.6248,-3.6203,-3.6139,-3.6025,-3.5979,-3.5753,-3.5814,-3.5799,-3.5728,-3.5732,-3.5606,-3.5589,-3.5547,-3.5372,-3.5337,-3.5258,-3.5375,-3.4923,-3.4913,-3.4904,-3.4866,-3.485,-3.4837,0,0,0,0,0,-3.6263,-3.6132,-3.6136,-3.6099,-3.5898,-3.5748,-3.5722,-3.568,-3.5722,-3.5655,-3.5591,-3.5593,-3.529,-3.5355,-3.5316,-3.5231,-3.4927,-3.4916,-3.4905,-3.4873,-3.4854,-3.4837,0,0,0,0,0,0,-3.6234,-3.6117,-3.6119,-3.5949,-3.5859,-3.5749,-3.5663,-3.5661,-3.5554,-3.5561,-3.551,-3.5481,-3.5319,-3.5259,-3.5334,-3.5057,-3.5113,-3.5093,-3.5102,-3.5083,-3.5068,-3.5084,-3.5363,0,0,0,0,0,-3.621,-3.6102,-3.6004,-3.5862,-3.5818,-3.5749,-3.5682,-3.5658,-3.5561,-3.5522,-3.5445,-3.5348,-3.523,-3.5153,-3.504,-3.4859,-3.483,-3.4781,-3.4767,-3.4755,-3.4738,-3.4637,-3.4614,-3.4862,-3.4862,-3.4863,0,0,-3.6154,-3.6077,-3.6011,-3.5855,-3.5783,-3.5669,-3.5716,-3.5593,-3.5508,-3.5501,-3.5344,-3.5285,-3.5172,-3.5,-3.492,-3.4945,-3.4664,-3.4741,-3.4732,-3.4721,-3.4623,-3.46,-3.4579,-3.4855,-3.4856,-3.4857,0,0,-3.5996,-3.5928,-3.5803,-3.5731,-3.5624,-3.5579,-3.5549,-3.544,-3.5401,-3.5244,-3.5238,-3.5133,-3.4932,-3.4853,-3.4786,-3.4602,-3.4599,-3.4566,-3.4487,-3.439,-3.437,-3.4353,-3.4285,-3.4262,-3.4549,-3.4549,-3.4549,0,-3.5939,-3.5772,-3.5738,-3.5616,-3.5547,-3.5543,-3.5414,-3.5345,-3.5203,-3.5154,-3.5186,-3.4935,-3.4859,-3.4668,-3.4624,-3.457,-3.4532,-3.4578,-3.4377,-3.4359,-3.4342,-3.4277,-3.4252,-3.4546,-3.4546,-3.4547,-3.4547,0,-3.5708,-3.5592,-3.5504,-3.5374,-3.5294,-3.517,-3.5113,-3.5037,-3.5021,-3.4972,-3.4811,-3.4721,-3.4589,-3.4543,-3.4524,-3.4349,-3.4368,-3.4389,-3.4443,-3.4315,-3.4253,-3.4228,-3.4541,-3.4542,-3.4543,-3.4544,0,0,-3.552,-3.5377,-3.5345,-3.5286,-3.5169,-3.5077,-3.4952,-3.4828,-3.4763,-3.4666,-3.4558,-3.439,-3.441,-3.4335,-3.4307,-3.4222,-3.4081,-3.4253,-3.425,-3.4223,-3.3881,-3.3864,-3.3836,-3.4081,-3.4076,-3.4072,-3.389,0,-3.5348,-3.5131,-3.5098,-3.4904,-3.4796,-3.4792,-3.4683,-3.4597,-3.4549,-3.4447,-3.4392,-3.4274,-3.431,-3.4264,-3.418,-3.4116,-3.4011,-3.4129,-3.3975,-3.397,-3.4001,-3.3804,-3.3785,-3.3618,-3.3866,-3.3861,-3.3858,0,-3.5117,-3.5021,-3.4818,-3.4718,-3.4671,-3.4574,-3.4459,-3.4363,-3.4265,-3.4236,-3.4154,-3.4138,-3.4004,-3.4068,-3.3883,-3.3964,-3.3899,-3.3858,-3.3851,-3.3832,-3.3904,-3.3778,-3.3563,-3.3538,-3.382,-3.3823,-3.3826,0,-3.4999,-3.4818,-3.4674,-3.4624,-3.4504,-3.4436,-3.4381,-3.4289,-3.4217,-3.4116,-3.4068,-3.3951,-3.3885,-3.3793,-3.3744,-3.3796,-3.3562,-3.3621,-3.353,-3.3531,-3.3478,-3.3481,-3.3248,-3.3441,-3.3441,-3.3442,-3.3442,0,-3.4809,-3.4684,-3.462,-3.4531,-3.4391,-3.4354,-3.4215,-3.4162,-3.408,-3.3978,-3.3967,-3.387,-3.3813,-3.3708,-3.3668,-3.352,-3.349,-3.346,-3.3451,-3.346,-3.3464,-3.3414,-3.3424,-3.3435,-3.3437,-3.3438,-3.3439,0,-3.4652,-3.4604,-3.4447,-3.4348,-3.432,-3.4221,-3.4135,-3.4046,-3.4001,-3.3872,-3.3839,-3.3765,-3.364,-3.3585,-3.3429,-3.3403,-3.3233,-3.3232,-3.3267,-3.3263,-3.3175,-3.3183,-3.2899,-3.2859,-3.3081,-3.3079,-3.3077,0,-3.4532,-3.4437,-3.433,-3.4264,-3.421,-3.4102,-3.4031,-3.399,-3.3915,-3.3799,-3.3724,-3.3601,-3.35,-3.3301,-3.323,-3.3111,-3.3106,-3.3015,-3.3088,-3.31,-3.3102,-3.3108,-3.3097,-3.3001,-3.2999,-3.2997,-3.2995,0,-3.4324,-3.4306,-3.4207,-3.4099,-3.4016,-3.3927,-3.384,-3.3786,-3.3731,-3.3647,-3.3523,-3.3446,-3.329,-3.3166,-3.3044,-3.2984,-3.2978,-3.2974,-3.2946,-3.2953,-3.2976,-3.2961,-3.3228,-3.298,-3.2981,-3.2982,-3.2983,-3.2984,-3.418,-3.4096,-3.4009,-3.3898,-3.383,-3.3751,-3.3664,-3.361,-3.3507,-3.338,-3.3362,-3.3229,-3.3134,-3.297,-3.2906,-3.2799,-3.282,-3.278,-3.2769,-3.2759,-3.2754,-3.2997,-3.2776,-3.2777,-3.2777,-3.2777,-3.2778,0,-3.397,-3.3915,-3.3814,-3.3696,-3.3609,-3.362,-3.3525,-3.3449,-3.3334,-3.3249,-3.3152,-3.3008,-3.289,-3.2812,-3.2691,-3.262,-3.2615,-3.2589,-3.2592,-3.2578,-3.2742,-3.2778,-3.2596,-3.2596,-3.2596,-3.2596,-3.2596,-3.2596,-3.385,-3.3709,-3.3681,-3.3505,-3.345,-3.3324,-3.3269,-3.3194,-3.3126,-3.2969,-3.2872,-3.2825,-3.2742,-3.2616,-3.2506,-3.2486,-3.2441,-3.2414,-3.2394,-3.2548,-3.2567,-3.2585,-3.2618,-3.2405,-3.2405,-3.2239,-3.2238,-3.2237]}]]